Weather History for McComb, MS

Change the Weather History Date:

Tuesday, November 27, 2012

  Actual Average Record
Temperature  
Mean Temperature 54 °F -  
Max Temperature 64 °F 68 °F 83 °F (1985)
Min Temperature 44 °F 46 °F 24 °F (1975)
Degree Days  
Heating Degree Days 11    
Growing Degree Days 4 (Base 50)    
Moisture  
Dew Point 52 °F    
Average Humidity 97    
Maximum Humidity 100    
Minimum Humidity 93    
Precipitation  
Precipitation 0.48 in - - ()
Sea Level Pressure  
Sea Level Pressure 30.19 in    
Wind  
Wind Speed 7 mph (North)    
Max Wind Speed 15 mph    
Max Gust Speed 22 mph    
Visibility 4 miles    
Events Rain , Thunderstorm    
Averages and records for this station are not official NWS values.
T = Trace of Precipitation, MM = Missing Value Source: NWS Daily Summary

Daily Weather History Graph

Daily Weather History Graph

Search for Another Location

Airport:

Trip Planner

Search our weather history database for the weather conditions in past years. The results will help you decide how hot, cold, wet, or windy it might be!

Date:

Astronomy

Nov. 27, 2012 Rise Set
Actual Time 6:39 AM CST 4:59 PM CST
Civil Twilight 6:13 AM CST 5:25 PM CST
Nautical Twilight 5:43 AM CST 5:55 PM CST
Astronomical Twilight 5:14 AM CST 6:24 PM CST
Moon 4:30 PM CST (11/27) 5:46 AM CST (11/27)
Length of Visible Light 11h 12m
Length of Day
10h 19m
Waxing Gibbous, 99% of the Moon is Illuminated
Nov 27
Waxing Gibbous
Nov 28
Full
Dec 6
Last Quarter
Dec 13
New
Dec 19
First Quarter

Hourly Weather History & Observations

Time (CST) Temp. Windchill Dew Point Humidity Pressure Visibility Wind Dir Wind Speed Gust Speed Precip Events Conditions
12:53 AM 63.0 °F - 63.0 °F 100% 30.08 in 7.0 mi South 6.9 mph - N/A   Overcast
1:53 AM 64.0 °F - 63.0 °F 96% 30.06 in 8.0 mi South 8.1 mph - N/A   Overcast
2:53 AM 64.0 °F - 63.0 °F 96% 30.04 in 9.0 mi South 10.4 mph - N/A   Overcast
3:53 AM 64.0 °F - 63.0 °F 96% 30.05 in 6.0 mi SW 4.6 mph - 0.01 in   Overcast
4:07 AM 64.4 °F - 62.6 °F 94% 30.06 in 5.0 mi South 5.8 mph - N/A Thunderstorm Overcast
4:27 AM 62.6 °F - 60.8 °F 94% 30.09 in 3.0 mi North 12.7 mph 19.6 mph 0.07 in Rain , Thunderstorm Rain
4:34 AM 62.6 °F - 60.8 °F 94% 30.09 in 2.0 mi NNW 10.4 mph - 0.12 in Rain , Thunderstorm Heavy Rain
4:45 AM 60.8 °F - 60.8 °F 100% 30.09 in 4.0 mi NNE 5.8 mph - 0.15 in Rain , Thunderstorm Thunderstorms and Rain
4:53 AM 61.0 °F - 60.1 °F 97% 30.08 in 6.0 mi ENE 4.6 mph - 0.16 in Rain , Thunderstorm Light Thunderstorms and Rain
5:10 AM 60.8 °F - 60.8 °F 100% 30.09 in 8.0 mi NNE 4.6 mph - 0.02 in Rain , Thunderstorm Light Rain
5:41 AM 60.8 °F - 60.8 °F 100% 30.10 in 6.0 mi NE 4.6 mph - 0.09 in Rain , Thunderstorm Rain
5:53 AM 61.0 °F - 60.1 °F 97% 30.09 in 7.0 mi Calm Calm - 0.12 in Rain , Thunderstorm Rain
6:00 AM 60.8 °F - 60.8 °F 100% 30.11 in 6.0 mi Calm Calm - 0.01 in Rain , Thunderstorm Light Rain
6:14 AM 60.8 °F - 60.8 °F 100% 30.12 in 3.0 mi Calm Calm - 0.05 in Rain , Thunderstorm Rain
6:31 AM 60.8 °F - 60.8 °F 100% 30.13 in 6.0 mi NW 3.5 mph - 0.08 in Rain Light Rain
6:43 AM 60.8 °F - 60.8 °F 100% 30.14 in 5.0 mi Calm Calm - 0.11 in Rain Rain
6:53 AM 60.1 °F - 60.1 °F 100% 30.14 in 5.0 mi Calm Calm - 0.12 in Rain Light Rain
7:12 AM 60.8 °F - 60.8 °F 100% 30.15 in 4.0 mi Calm Calm - 0.04 in Rain Rain
7:19 AM 60.8 °F - 60.8 °F 100% 30.15 in 4.0 mi North 3.5 mph - 0.05 in Rain Light Rain
7:21 AM 60.8 °F - 60.8 °F 100% 30.15 in 5.0 mi NNE 3.5 mph - 0.05 in Rain Light Rain
7:53 AM 55.9 °F - 55.0 °F 97% 30.16 in 10.0 mi North 11.5 mph - 0.06 in Rain Light Rain
8:22 AM 53.6 °F - 53.6 °F 100% 30.18 in 5.0 mi North 13.8 mph - 0.00 in Rain Light Rain
8:53 AM 52.0 °F - 51.1 °F 97% 30.19 in 4.0 mi North 11.5 mph - 0.00 in   Overcast
9:53 AM 51.1 °F - 51.1 °F 100% 30.23 in 7.0 mi North 9.2 mph - 0.01 in   Overcast
10:53 AM 51.1 °F - 50.0 °F 96% 30.23 in 5.0 mi North 11.5 mph - N/A   Overcast
11:11 AM 51.8 °F - 50.0 °F 94% 30.23 in 1.8 mi NNW 15.0 mph - N/A   Overcast
11:21 AM 50.0 °F - 48.2 °F 94% 30.23 in 3.0 mi North 10.4 mph - N/A   Overcast
11:32 AM 50.0 °F - 50.0 °F 100% 30.22 in 1.8 mi North 11.5 mph - N/A   Overcast
11:53 AM 48.9 °F - 48.9 °F 100% 30.22 in 2.5 mi North 12.7 mph - N/A   Overcast
12:19 PM 48.2 °F - 48.2 °F 100% 30.21 in 1.5 mi NNW 13.8 mph - N/A   Overcast
12:31 PM 48.2 °F - 48.2 °F 100% 30.21 in 2.0 mi North 12.7 mph - N/A   Overcast
12:43 PM 48.2 °F - 48.2 °F 100% 30.22 in 1.8 mi North 11.5 mph - N/A   Overcast
12:53 PM 48.9 °F - 48.0 °F 97% 30.22 in 1.5 mi North 6.9 mph - N/A   Overcast
1:11 PM 48.2 °F - 48.2 °F 100% 30.22 in 2.0 mi NNW 12.7 mph - N/A   Overcast
1:45 PM 46.4 °F 41.1 °F 46.4 °F 100% 30.22 in 1.5 mi NNW 11.5 mph - N/A   Overcast
1:53 PM 46.9 °F - 46.9 °F 100% 30.21 in 1.5 mi North 9.2 mph - N/A   Overcast
2:06 PM 46.4 °F 40.1 °F 46.4 °F 100% 30.22 in 3.0 mi North 15.0 mph 21.9 mph N/A   Overcast
2:33 PM 46.4 °F 41.5 °F 44.6 °F 93% 30.23 in 4.0 mi North 10.4 mph - N/A   Overcast
2:53 PM 46.9 °F - 45.0 °F 93% 30.22 in 3.0 mi North 10.4 mph - N/A   Overcast
3:53 PM 46.9 °F - 45.0 °F 93% 30.24 in 5.0 mi North 6.9 mph - N/A   Overcast
4:53 PM 46.9 °F - 45.0 °F 93% 30.25 in 4.0 mi North 6.9 mph - N/A   Overcast
5:53 PM 46.0 °F 40.6 °F 45.0 °F 96% 30.28 in 4.0 mi North 11.5 mph - N/A   Overcast
6:03 PM 46.4 °F 41.9 °F 44.6 °F 93% 30.29 in 3.0 mi North 9.2 mph - N/A   Overcast
6:53 PM 46.0 °F 43.1 °F 45.0 °F 96% 30.30 in 3.0 mi North 5.8 mph - N/A   Overcast
7:53 PM 46.0 °F 42.5 °F 45.0 °F 96% 30.31 in 2.5 mi North 6.9 mph - N/A   Overcast
8:01 PM 44.6 °F 39.2 °F 44.6 °F 100% 30.31 in 3.0 mi North 10.4 mph - N/A   Overcast
8:22 PM 44.6 °F 40.2 °F 44.6 °F 100% 30.31 in 2.5 mi North 8.1 mph - N/A   Overcast
8:53 PM 45.0 °F 41.2 °F 44.1 °F 97% 30.31 in 2.5 mi North 6.9 mph - N/A   Overcast
9:21 PM 44.6 °F 39.7 °F 44.6 °F 100% 30.31 in 3.0 mi North 9.2 mph - N/A   Overcast
9:53 PM 44.1 °F 39.5 °F 43.0 °F 96% 30.32 in 3.0 mi North 8.1 mph - N/A   Overcast
10:53 PM 44.1 °F 40.1 °F 43.0 °F 96% 30.32 in 4.0 mi North 6.9 mph - N/A   Overcast
11:41 PM 44.6 °F 40.2 °F 42.8 °F 93% 30.33 in 6.0 mi North 8.1 mph - N/A   Overcast
11:53 PM 45.0 °F 42.6 °F 43.0 °F 93% 30.32 in 6.0 mi NNE 4.6 mph - N/A   Overcast